^^
De Soto Valley Weather Station Historical Data
 
Daily Summary for December 06, 2019 Units:  English    Metric   Both
Daily Weekly Monthly Yearly Custom
  Current: High: Low: Average:
Temperature: 32.8 °F 34.7 °F 32.5 °F 33.4 °F
Dew Point: 27.6 °F 33.1 °F 27.6 °F 29.8 °F
Humidity: 81% 94% 81% 87%
Wind Speed: 0mph 3mph 0mph 0.8mph
Wind Gust: 4mph 7mph - -
WindCalm - - SSE
Pressure: 30.14 in 30.14 in 29.96 in -
Precipitation: 0 in      
Historical Graphs
 
 
Tabular Data for December 06, 2019
Time Temperature Dew Point Pressure Wind Wind Speed Wind Gust Humidity Rainfall Rate (Hourly) solar
00:00 34.6 °F 33.1 °F 29.96 in SSE 2 mph 5 mph 94% 0 in 0.00 W/m2
00:05 34.7 °F 33.1 °F 29.96 in Calm   1 mph 94% 0 in 0.00 W/m2
00:10 34.6 °F 32.8 °F 29.96 in SE 1 mph 2 mph 93% 0 in 0.00 W/m2
00:15 34.5 °F 32.4 °F 29.96 in ESE 2 mph 5 mph 92% 0 in 0.00 W/m2
00:20 34.3 °F 32.2 °F 29.96 in Calm   2 mph 92% 0 in 0.00 W/m2
00:25 34.1 °F 31.7 °F 29.97 in ESE 1 mph 5 mph 91% 0 in 0.00 W/m2
00:30 33.9 °F 31.6 °F 29.97 in North 1 mph 3 mph 91% 0 in 0.00 W/m2
00:35 33.9 °F 31.6 °F 29.97 in SW 1 mph 3 mph 91% 0 in 0.00 W/m2
00:40 33.9 °F 31.3 °F 29.97 in South 1 mph 6 mph 90% 0 in 0.00 W/m2
00:45 34 °F 31.4 °F 29.98 in SSW 1 mph 2 mph 90% 0 in 0.00 W/m2
00:50 34 °F 31.4 °F 29.98 in SW 1 mph 5 mph 90% 0 in 0.00 W/m2
00:55 34.1 °F 31.5 °F 29.99 in SSW 2 mph 6 mph 90% 0 in 0.00 W/m2
01:00 34.2 °F 31.3 °F 29.99 in South 2 mph 6 mph 89% 0 in 0.00 W/m2
01:05 34.2 °F 31.3 °F 29.99 in South 1 mph 4 mph 89% 0 in 0.00 W/m2
01:10 34.1 °F 30.9 °F 30.00 in South 1.2 mph 0.5 mph 88% 0 in 0.00 W/m2
01:15 34.1 °F 30.9 °F 30.00 in South 1 mph 3 mph 88% 0 in 0.00 W/m2
01:20 34.1 °F 30.9 °F 30.00 in SSE 2 mph 5 mph 88% 0 in 0.00 W/m2
01:25 34.1 °F 30.6 °F 30.01 in Calm   5 mph 87% 0 in 0.00 W/m2
01:30 34.1 °F 30.6 °F 30.01 in Calm   5 mph 87% 0 in 0.00 W/m2
01:35 34 °F 30.6 °F 30.02 in Calm   4 mph 87% 0 in 0.00 W/m2
01:40 34 °F 30.5 °F 30.02 in SE 1 mph 3 mph 87% 0 in 0.00 W/m2
01:45 34 °F 30.5 °F 30.02 in ESE 2.3 mph 1.2 mph 87% 0 in 0.00 W/m2
01:50 33.9 °F 30.4 °F 30.03 in East 1 mph 3 mph 87% 0 in 0.00 W/m2
01:55 33.9 °F 30.4 °F 30.03 in South 2.3 mph 1.1 mph 87% 0 in 0.00 W/m2
02:00 33.8 °F 30.3 °F 30.03 in South 1 mph 4 mph 87% 0 in 0.00 W/m2
02:05 33.8 °F 30.3 °F 30.04 in SSE 1 mph 5 mph 87% 0 in 0.00 W/m2
02:10 33.7 °F 30 °F 30.04 in SSE 1 mph 3 mph 86% 0 in 0.00 W/m2
02:15 33.7 °F 30 °F 30.05 in SE 2 mph 4 mph 86% 0 in 0.00 W/m2
02:20 33.6 °F 29.9 °F 30.05 in SSE 3 mph 7 mph 86% 0 in 0.00 W/m2
02:25 33.5 °F 29.8 °F 30.06 in Calm   7 mph 86% 0 in 0.00 W/m2
02:30 33.5 °F 29.8 °F 30.06 in South 2 mph 5 mph 86% 0 in 0.00 W/m2
02:35 33.5 °F 29.5 °F 30.06 in SSW 1 mph 6 mph 85% 0 in 0.00 W/m2
02:40 33.4 °F 29.4 °F 30.07 in SSE 1 mph 5 mph 85% 0 in 0.00 W/m2
02:45 33.4 °F 29.4 °F 30.07 in Calm   3 mph 85% 0 in 0.00 W/m2
02:50 33.3 °F 29.3 °F 30.07 in South 2 mph 4 mph 85% 0 in 0.00 W/m2
02:55 33.2 °F 29.2 °F 30.07 in Calm   3 mph 85% 0 in 0.00 W/m2
03:00 33.1 °F 29.1 °F 30.07 in Calm   1 mph 85% 0 in 0.00 W/m2
03:05 33 °F 29 °F 30.07 in South 1 mph 3 mph 85% 0 in 0.00 W/m2
03:10 32.9 °F 28.9 °F 30.07 in Calm   1 mph 85% 0 in 0.00 W/m2
03:15 32.8 °F 29.1 °F 30.08 in Calm   2 mph 86% 0 in 0.00 W/m2
03:20 32.7 °F 29 °F 30.08 in Calm   2 mph 86% 0 in 0.00 W/m2
03:25 32.6 °F 28.9 °F 30.09 in SSW 1 mph 3 mph 86% 0 in 0.00 W/m2
03:30 32.6 °F 29.2 °F 30.09 in Calm   3 mph 87% 0 in 0.00 W/m2
03:35 32.5 °F 28.8 °F 30.09 in Calm   5 mph 86% 0 in 0.00 W/m2
03:40 32.6 °F 28.9 °F 30.09 in South 1 mph 2 mph 86% 0 in 0.00 W/m2
03:45 32.6 °F 28.9 °F 30.10 in South 1 mph 4 mph 86% 0 in 0.00 W/m2
03:50 32.6 °F 28.9 °F 30.10 in SE 1 mph 3 mph 86% 0 in 0.00 W/m2
03:55 32.7 °F 28.9 °F 30.10 in Calm   2 mph 86% 0 in 0.00 W/m2
04:00 32.7 °F 29 °F 30.10 in Calm   3 mph 86% 0 in 0.00 W/m2
04:05 32.7 °F 28.7 °F 30.10 in Calm   4 mph 85% 0 in 0.00 W/m2
04:10 32.7 °F 28.7 °F 30.10 in Calm   4 mph 85% 0 in 0.00 W/m2
04:15 32.8 °F 28.8 °F 30.11 in Calm   1 mph 85% 0 in 0.00 W/m2
04:20 32.8 °F 28.8 °F 30.11 in Calm   3 mph 85% 0 in 0.00 W/m2
04:25 32.8 °F 28.8 °F 30.11 in South 2 mph 3 mph 85% 0 in 0.00 W/m2
04:30 32.8 °F 28.8 °F 30.12 in Calm   3 mph 85% 0 in 0.00 W/m2
04:35 32.8 °F 28.5 °F 30.11 in Calm   2 mph 84% 0 in 0.00 W/m2
04:40 32.8 °F 28.5 °F 30.12 in Calm   3 mph 84% 0 in 0.00 W/m2
04:45 32.8 °F 28.5 °F 30.12 in Calm   3 mph 84% 0 in 0.00 W/m2
04:50 32.8 °F 28.5 °F 30.12 in SSW 1 mph 3 mph 84% 0 in 0.00 W/m2
04:55 32.8 °F 28.2 °F 30.12 in SSW 1 mph 3 mph 83% 0 in 0.00 W/m2
05:00 32.8 °F 28.2 °F 30.12 in ESE 1 mph 3 mph 83% 0 in 0.00 W/m2
05:05 32.7 °F 27.8 °F 30.12 in SE 2 mph 6 mph 82% 0 in 0.00 W/m2
05:10 32.8 °F 27.6 °F 30.12 in SSE 2 mph 3 mph 81% 0 in 0.00 W/m2
05:15 32.8 °F 27.6 °F 30.12 in Calm   2 mph 81% 0 in 0.00 W/m2
05:20 32.8 °F 27.6 °F 30.13 in Calm   3 mph 81% 0 in 0.00 W/m2
05:25 32.8 °F 27.9 °F 30.13 in Calm   1 mph 82% 0 in 0.00 W/m2
05:30 32.8 °F 27.6 °F 30.14 in Calm   4 mph 81% 0 in 0.00 W/m2
De Soto, Wisconsin, USA
Compliments of Weather Underground - 2 mb